Change the Weather History Date:

Monday, November 11, 2013

  Actual Average Record
Temperature  
Mean Temperature 49 °F -  
Max Temperature 69 °F - 81 °F (1989)
Min Temperature 29 °F - 20 °F (1960)
Degree Days  
Heating Degree Days 16    
Month to date heating degree days 163  
Since 1 July heating degree days 391  
Cooling Degree Days 0    
Month to date cooling degree days 0  
Moisture  
Dew Point 30 °F    
Average Humidity 55    
Maximum Humidity 92    
Minimum Humidity 17    
Precipitation  
Precipitation T in - 1.35 in (2004)
Month to date precipitation 0.35  
Sea Level Pressure  
Sea Level Pressure 30.24 in    
Wind  
Wind Speed 3 mph (WSW)    
Max Wind Speed 20 mph    
Max Gust Speed 23 mph    
Visibility 10 miles    
Events Rain    
T = Trace of Precipitation, MM = Missing Value Source: NWS Daily Summary

Daily Weather History Graph

Daily Weather History Graph

Search for Another Location

Airport or City:

Trip Planner

Search our weather history database for the weather conditions in past years. The results will help you decide how hot, cold, wet, or windy it might be!

Date:

Astronomy

Nov. 11, 2013 Rise Set
Actual Time 6:23 AM CST 4:43 PM CST
Civil Twilight 5:56 AM CST 5:10 PM CST
Nautical Twilight 5:25 AM CST 5:41 PM CST
Astronomical Twilight 4:54 AM CST 6:12 PM CST
Moon 1:15 PM CST (11/11) 12:17 AM CST (11/11)
Length of Visible Light 11h 14m
Length of Day
10h 19m
Waxing Gibbous, 66% of the Moon is Illuminated
Nov 11
Waxing Gibbous
Nov 17
Full
Nov 25
Last Quarter
Dec 2
New
Dec 9
First Quarter

Hourly Weather History & Observations

Time (CST) Temp. Windchill Dew Point Humidity Pressure Visibility Wind Dir Wind Speed Gust Speed Precip Events Conditions
12:52 AM 35.1 °F - 30.0 °F 82% 30.32 in 10.0 mi Calm Calm - N/A   Clear
1:52 AM 32.0 °F - 28.9 °F 88% 30.31 in 10.0 mi Calm Calm - N/A   Clear
2:52 AM 33.1 °F - 28.9 °F 85% 30.30 in 10.0 mi Calm Calm - N/A   Clear
3:52 AM 30.9 °F - 28.0 °F 89% 30.29 in 10.0 mi Calm Calm - N/A   Clear
4:52 AM 32.0 °F - 28.0 °F 85% 30.30 in 10.0 mi Calm Calm - N/A   Clear
5:52 AM 30.9 °F - 28.0 °F 89% 30.31 in 10.0 mi Calm Calm - N/A   Clear
6:52 AM 30.9 °F - 28.9 °F 92% 30.32 in 10.0 mi Calm Calm - N/A   Clear
7:52 AM 39.0 °F - 33.1 °F 79% 30.33 in 10.0 mi Calm Calm - N/A   Clear
8:52 AM 45.0 °F 42.6 °F 34.0 °F 65% 30.31 in 10.0 mi SSE 4.6 mph - N/A   Clear
9:52 AM 53.1 °F - 30.9 °F 43% 30.30 in 10.0 mi SW 5.8 mph - N/A   Clear
10:52 AM 59.0 °F - 30.0 °F 33% 30.27 in 10.0 mi South 4.6 mph - N/A   Clear
11:52 AM 63.0 °F - 28.0 °F 27% 30.23 in 10.0 mi South 4.6 mph - N/A   Clear
12:52 PM 66.0 °F - 23.0 °F 20% 30.19 in 10.0 mi WSW 6.9 mph - N/A   Clear
1:52 PM 68.0 °F - 23.0 °F 18% 30.17 in 10.0 mi Calm Calm - N/A   Partly Cloudy
2:52 PM 68.0 °F - 25.0 °F 20% 30.15 in 10.0 mi West 6.9 mph - N/A   Mostly Cloudy
3:52 PM 66.0 °F - 26.1 °F 22% 30.15 in 10.0 mi Variable 5.8 mph - N/A   Mostly Cloudy
4:52 PM 61.0 °F - 30.9 °F 32% 30.16 in 10.0 mi NNW 4.6 mph - N/A   Overcast
5:52 PM 61.0 °F - 30.0 °F 31% 30.17 in 10.0 mi Calm Calm - N/A   Overcast
6:52 PM 59.0 °F - 33.1 °F 38% 30.17 in 10.0 mi SW 3.5 mph - 0.00 in Rain Light Rain
7:52 PM 57.9 °F - 33.1 °F 39% 30.18 in 10.0 mi WNW 3.5 mph - 0.00 in   Overcast
8:52 PM 57.0 °F - 35.1 °F 44% 30.18 in 10.0 mi West 3.5 mph - 0.00 in   Overcast
9:52 PM 55.9 °F - 34.0 °F 44% 30.18 in 10.0 mi West 3.5 mph - N/A   Overcast
10:52 PM 55.9 °F - 35.1 °F 45% 30.19 in 10.0 mi WNW 3.5 mph - N/A   Overcast
11:52 PM 55.0 °F - 37.9 °F 53% 30.21 in 10.0 mi North 13.8 mph - N/A   Overcast